Location: York
(31.8935°S, 116.7682°E)
Time: 17:57:51
(UTC+08:00)

Hubble Space Telescope - Pass Details

Date: 24 May 2021
Orbit: 535 x 539 km, 28.5° (Epoch: 17 June)

Event Time Altitude Azimuth Distance (km) Brightness Sun altitude
Rises 18:01:04 0° 273° (W) 2,689 6.1 -9.1°
Reaches altitude 10° 18:03:24 10° 278° (W) 1,798 5.0 -9.5°
Maximum altitude 18:07:23 45° 351° (N) 736 1.7 -10.3°
Drops below altitude 10° 18:11:22 10° 65° (ENE) 1,796 3.0 -11.2°
Enters shadow 18:11:42 - 66° (ENE) 1,920 3.1 -11.2°
